contact:dominique.lefevre@mio.osupytheas.fr, maurice.libes@osupytheas.fr, didier.mallarino@osupytheas.fr
Project:EMSO http://www.emso-fr.org/EMSO-France
Depth: 2436.0 m
Title:EMSO Ligure Ouest : Data MII capteur AQUADOPP
Date,Latitude,Longitude,X_East,Y_North,Z_Up,Amplitude_X,Amplitude_Y,Amplitude_Z,Batterie,SoundSpeed,Heading,Pitch,Roll,Pressure,TIS,Speed,Direction
, degrees North, degrees East, m.s-1, m.s-1,m.s-1, 1, 1, 1, Volt, m.s-1, degree, degree, degree, dbar, degree_C, m.s-1, degree
2023-03-21T00:04:03,42.805,6.029,0.009,0.026,0.01,104.0,103.0,102.0,13.3,1505.2,323.5,-0.8,1.9,2471.207,13.29,0.027,19.1
2023-03-21T00:07:03,42.805,6.029,-0.01,0.02,-0.006,103.0,102.0,102.0,13.4,1505.2,331.4,-0.8,1.8,2471.179,13.29,0.022,333.4
2023-03-21T00:10:03,42.805,6.029,0.009,0.029,0.0,102.0,102.0,102.0,13.4,1505.2,332.9,-0.8,1.8,2471.144,13.29,0.03,17.2
2023-03-21T00:13:03,42.805,6.029,0.006,0.02,0.01,103.0,102.0,102.0,13.4,1505.2,337.8,-0.8,1.9,2471.195,13.29,0.02,16.7
2023-03-21T00:16:03,42.805,6.029,-0.003,0.02,-0.008,103.0,103.0,102.0,13.4,1505.2,332.9,-0.8,1.8,2471.188,13.29,0.02,351.5
2023-03-21T00:19:03,42.805,6.029,-0.005,0.02,0.016,103.0,104.0,102.0,13.4,1505.2,326.5,-0.8,1.8,2471.151,13.29,0.02,346.0
2023-03-21T00:22:03,42.805,6.029,-0.001,0.02,-0.006,101.0,104.0,103.0,13.4,1505.2,322.5,-0.7,1.8,2471.126,13.29,0.02,357.1
2023-03-21T00:25:03,42.805,6.029,0.004,0.021,0.014,101.0,104.0,102.0,13.3,1505.2,339.2,-0.7,1.8,2471.178,13.29,0.021,10.8
2023-03-21T00:28:03,42.805,6.029,0.005,0.01,0.019,103.0,102.0,101.0,13.3,1505.2,330.9,-0.8,1.8,2471.162,13.29,0.011,26.6
2023-03-21T00:31:03,42.805,6.029,0.003,0.019,-0.039,103.0,103.0,103.0,13.4,1505.2,337.4,-0.8,1.8,2471.16,13.29,0.019,9.0
2023-03-21T00:34:03,42.805,6.029,0.01,0.03,-0.001,103.0,102.0,102.0,13.3,1505.2,316.1,-0.7,1.8,2471.162,13.29,0.031,18.4
2023-03-21T00:37:03,42.805,6.029,-0.012,0.031,-0.018,102.0,101.0,102.0,13.4,1505.2,331.9,-0.8,1.8,2471.144,13.29,0.033,338.8
2023-03-21T00:40:03,42.805,6.029,-0.003,0.02,-0.02,102.0,103.0,102.0,13.4,1505.2,334.8,-0.7,1.8,2471.138,13.29,0.02,351.5
2023-03-21T00:43:03,42.805,6.029,0.005,0.025,0.0,103.0,104.0,103.0,13.3,1505.2,329.8,-0.8,1.8,2471.137,13.29,0.025,11.3
2023-03-21T00:46:03,42.805,6.029,-0.008,0.049,-0.011,102.0,102.0,102.0,13.4,1505.2,329.3,-0.8,1.8,2471.114,13.29,0.049,350.7
2023-03-21T00:49:03,42.805,6.029,-0.003,0.022,-0.014,104.0,100.0,102.0,13.4,1505.2,323.4,-0.7,1.8,2471.13,13.29,0.022,352.2
2023-03-21T00:52:03,42.805,6.029,-0.015,0.042,0.001,102.0,104.0,101.0,13.3,1505.2,328.6,-0.8,1.8,2471.121,13.29,0.044,340.4
2023-03-21T00:55:03,42.805,6.029,0.002,0.018,-0.012,102.0,104.0,102.0,13.3,1505.2,333.4,-0.8,1.8,2471.161,13.29,0.018,6.3
2023-03-21T00:58:03,42.805,6.029,-0.022,0.019,-0.048,104.0,102.0,102.0,13.4,1505.2,327.0,-0.8,1.8,2471.137,13.29,0.029,310.8
2023-03-21T01:04:03,42.805,6.029,0.0,0.03,0.012,105.0,104.0,105.0,13.4,1505.2,322.0,-0.7,1.8,2471.196,13.29,0.03,0.0
2023-03-21T01:07:03,42.805,6.029,-0.012,0.021,-0.01,104.0,104.0,103.0,13.4,1505.2,316.1,-0.8,1.8,2471.176,13.29,0.024,330.3
2023-03-21T01:10:03,42.805,6.029,-0.018,0.014,-0.032,103.0,104.0,101.0,13.3,1505.2,332.0,-0.8,1.8,2471.177,13.29,0.022,307.9
2023-03-21T01:13:03,42.805,6.029,0.015,0.026,-0.02,102.0,103.0,102.0,13.4,1505.2,329.8,-0.8,1.8,2471.202,13.29,0.03,30.0
2023-03-21T01:16:03,42.805,6.029,0.007,0.025,-0.005,103.0,102.0,102.0,13.3,1505.2,322.1,-0.8,1.8,2471.124,13.29,0.025,15.6
2023-03-21T01:19:03,42.805,6.029,0.005,0.008,-0.002,102.0,102.0,102.0,13.4,1505.2,334.3,-0.7,1.8,2471.151,13.29,0.009,32.0
2023-03-21T01:22:03,42.805,6.029,0.0,0.021,-0.027,104.0,104.0,101.0,13.4,1505.2,335.8,-0.8,1.8,2471.124,13.29,0.021,0.0
2023-03-21T01:25:03,42.805,6.029,-0.014,0.032,-0.01,103.0,104.0,101.0,13.3,1505.2,334.6,-0.7,1.8,2471.142,13.29,0.034,336.4
2023-03-21T01:28:03,42.805,6.029,0.0,0.011,0.002,103.0,102.0,101.0,13.4,1505.2,326.5,-0.8,1.8,2471.125,13.29,0.011,0.0
2023-03-21T01:31:03,42.805,6.029,0.006,0.018,-0.003,102.0,102.0,103.0,13.4,1505.2,330.1,-0.7,1.9,2471.146,13.29,0.018,18.4
2023-03-21T01:34:03,42.805,6.029,0.001,0.02,-0.002,102.0,103.0,103.0,13.4,1505.2,327.8,-0.7,1.8,2471.16,13.29,0.02,2.9
2023-03-21T01:37:03,42.805,6.029,0.0,0.013,-0.023,103.0,102.0,100.0,13.4,1505.2,317.6,-0.8,1.8,2471.127,13.29,0.013,0.0
2023-03-21T01:40:03,42.805,6.029,-0.016,0.035,-0.005,103.0,103.0,102.0,13.4,1505.2,333.9,-0.8,1.8,2471.137,13.29,0.038,335.4
2023-03-21T01:43:03,42.805,6.029,0.005,0.016,-0.002,104.0,103.0,102.0,13.4,1505.2,321.7,-0.8,1.8,2471.154,13.29,0.016,17.4
2023-03-21T01:46:03,42.805,6.029,-0.002,0.027,0.006,102.0,103.0,101.0,13.4,1505.2,329.9,-0.8,1.8,2471.169,13.29,0.027,355.8
2023-03-21T01:49:03,42.805,6.029,-0.013,0.023,-0.031,103.0,104.0,102.0,13.3,1505.2,330.8,-0.7,1.8,2471.149,13.29,0.026,330.5
2023-03-21T01:52:03,42.805,6.029,-0.005,0.011,-0.02,104.0,102.0,102.0,13.3,1505.2,323.8,-0.8,1.8,2471.158,13.29,0.012,335.6
2023-03-21T01:55:03,42.805,6.029,0.005,0.015,-0.031,103.0,103.0,102.0,13.4,1505.2,340.2,-0.7,1.8,2471.137,13.29,0.015,18.4
2023-03-21T01:58:03,42.805,6.029,-0.004,0.008,-0.038,104.0,104.0,102.0,13.4,1505.2,332.6,-0.8,1.8,2471.187,13.29,0.008,333.4
2023-03-21T02:04:03,42.805,6.029,-0.008,0.015,-0.013,102.0,102.0,102.0,13.3,1505.2,318.8,-0.7,1.8,2471.169,13.29,0.017,331.9
2023-03-21T02:07:03,42.805,6.029,0.003,0.043,0.013,103.0,103.0,101.0,13.4,1505.2,331.6,-0.8,1.8,2471.178,13.29,0.043,4.0
2023-03-21T02:10:03,42.805,6.029,-0.005,0.012,-0.015,103.0,103.0,101.0,13.4,1505.2,317.9,-0.8,1.8,2471.202,13.29,0.013,337.4
2023-03-21T02:13:03,42.805,6.029,0.015,0.014,-0.003,103.0,102.0,102.0,13.4,1505.2,323.7,-0.7,1.8,2471.17,13.29,0.02,47.0
2023-03-21T02:16:03,42.805,6.029,-0.014,0.024,-0.013,102.0,102.0,102.0,13.4,1505.2,340.6,-0.8,1.8,2471.2,13.29,0.027,329.7
2023-03-21T02:19:03,42.805,6.029,0.0,0.006,-0.04,103.0,103.0,102.0,13.4,1505.2,332.5,-0.8,1.8,2471.147,13.29,0.006,0.0
2023-03-21T02:22:03,42.805,6.029,-0.003,0.031,-0.016,103.0,102.0,102.0,13.4,1505.2,339.1,-0.7,1.8,2471.168,13.29,0.031,354.5
2023-03-21T02:25:03,42.805,6.029,0.002,0.03,-0.006,105.0,103.0,102.0,13.3,1505.2,318.2,-0.7,1.8,2471.143,13.29,0.03,3.8
2023-03-21T02:28:03,42.805,6.029,-0.008,0.017,-0.044,104.0,105.0,103.0,13.4,1505.2,339.4,-0.7,1.8,2471.156,13.29,0.018,334.8
2023-03-21T02:31:03,42.805,6.029,-0.02,-0.002,-0.029,104.0,103.0,103.0,13.4,1505.2,327.1,-0.8,1.8,2471.17,13.29,0.02,264.3
2023-03-21T02:34:03,42.805,6.029,0.0,0.014,-0.028,103.0,103.0,103.0,13.3,1505.2,340.0,-0.8,1.8,2471.175,13.29,0.014,0.0
2023-03-21T02:37:03,42.805,6.029,-0.002,0.011,-0.001,104.0,103.0,102.0,13.4,1505.2,335.2,-0.8,1.8,2471.164,13.29,0.011,349.7
2023-03-21T02:40:03,42.805,6.029,-0.022,0.014,-0.034,103.0,105.0,102.0,13.4,1505.2,338.9,-0.8,1.8,2471.195,13.29,0.026,302.5
2023-03-21T02:43:03,42.805,6.029,-0.001,0.028,0.0,105.0,104.0,102.0,13.3,1505.2,323.4,-0.7,1.8,2471.178,13.29,0.028,358.0
2023-03-21T02:46:03,42.805,6.029,-0.002,0.026,-0.001,106.0,104.0,101.0,13.4,1505.2,333.4,-0.7,1.8,2471.177,13.29,0.026,355.6
2023-03-21T02:49:03,42.805,6.029,0.011,0.011,0.0,104.0,104.0,102.0,13.4,1505.2,337.8,-0.7,1.8,2471.193,13.29,0.015,45.0
2023-03-21T02:52:03,42.805,6.029,0.008,0.031,-0.011,103.0,105.0,103.0,13.4,1505.2,325.4,-0.8,1.8,2471.159,13.29,0.032,14.5
2023-03-21T02:55:03,42.805,6.029,0.008,0.013,-0.014,104.0,104.0,102.0,13.4,1505.2,330.5,-0.7,1.8,2471.225,13.29,0.015,31.6
2023-03-21T02:58:03,42.805,6.029,0.009,0.019,-0.005,105.0,104.0,102.0,13.4,1505.2,332.5,-0.8,1.8,2471.187,13.29,0.021,25.3
2023-03-21T03:04:03,42.805,6.029,0.041,0.0,0.015,103.0,103.0,103.0,13.3,1505.2,333.8,-0.8,1.8,2471.236,13.29,0.041,90.0
2023-03-21T03:07:03,42.805,6.029,-0.005,0.014,-0.009,103.0,104.0,102.0,13.3,1505.2,335.8,-0.7,1.8,2471.241,13.29,0.014,340.4
2023-03-21T03:10:03,42.805,6.029,0.005,0.006,-0.034,104.0,103.0,102.0,13.4,1505.2,332.0,-0.8,1.8,2471.241,13.29,0.007,39.8
2023-03-21T03:13:03,42.805,6.029,0.011,0.006,-0.024,103.0,103.0,102.0,13.3,1505.2,335.4,-0.8,1.8,2471.234,13.29,0.012,61.4
2023-03-21T03:16:03,42.805,6.029,0.023,0.02,-0.009,104.0,104.0,103.0,13.4,1505.2,332.6,-0.7,1.8,2471.225,13.29,0.03,49.0
2023-03-21T03:19:03,42.805,6.029,0.04,0.023,0.006,103.0,103.0,102.0,13.3,1505.2,322.9,-0.7,1.8,2471.212,13.29,0.046,60.1
2023-03-21T03:22:03,42.805,6.029,-0.015,0.025,0.003,103.0,104.0,103.0,13.3,1505.2,321.8,-0.8,1.8,2471.248,13.29,0.029,329.0
2023-03-21T03:25:03,42.805,6.029,0.018,-0.007,-0.02,103.0,103.0,102.0,13.3,1505.2,335.2,-0.8,1.8,2471.222,13.29,0.019,111.2
2023-03-21T03:28:03,42.805,6.029,0.006,0.026,0.001,103.0,103.0,103.0,13.4,1505.2,342.1,-0.8,1.8,2471.273,13.29,0.026,13.0
2023-03-21T03:31:03,42.805,6.029,0.001,0.001,-0.041,104.0,104.0,103.0,13.4,1505.2,323.3,-0.8,1.8,2471.254,13.29,0.001,45.0
2023-03-21T03:34:03,42.805,6.029,0.019,0.012,-0.024,104.0,103.0,103.0,13.4,1505.2,339.5,-0.8,1.8,2471.249,13.29,0.022,57.7
2023-03-21T03:37:03,42.805,6.029,0.008,0.0,-0.017,103.0,104.0,103.0,13.4,1505.2,319.4,-0.8,1.8,2471.247,13.29,0.008,90.0
2023-03-21T03:40:03,42.805,6.029,0.006,0.014,0.019,104.0,104.0,102.0,13.3,1505.2,330.9,-0.8,1.8,2471.212,13.29,0.015,23.2
2023-03-21T03:43:03,42.805,6.029,-0.003,0.001,-0.026,105.0,104.0,102.0,13.4,1505.2,321.8,-0.7,1.8,2471.2,13.29,0.003,288.4
2023-03-21T03:46:02,42.805,6.029,0.006,0.005,-0.012,104.0,104.0,104.0,13.4,1505.2,337.3,-0.8,1.8,2471.233,13.29,0.007,50.2
2023-03-21T03:49:02,42.805,6.029,0.008,-0.001,0.005,104.0,104.0,102.0,13.4,1505.2,330.6,-0.7,1.8,2471.269,13.29,0.008,97.1
2023-03-21T03:52:02,42.805,6.029,-0.001,0.025,-0.029,104.0,103.0,103.0,13.4,1505.2,323.8,-0.8,1.8,2471.277,13.29,0.025,357.7
2023-03-21T03:55:02,42.805,6.029,0.022,-0.001,-0.01,104.0,104.0,103.0,13.4,1505.2,339.9,-0.8,1.8,2471.278,13.29,0.022,92.6
2023-03-21T03:58:02,42.805,6.029,0.004,0.006,-0.021,104.0,104.0,102.0,13.4,1505.2,327.4,-0.8,1.8,2471.273,13.29,0.007,33.7
2023-03-21T04:04:02,42.805,6.029,0.018,-0.019,0.009,103.0,103.0,103.0,13.4,1505.2,343.1,-0.8,1.8,2471.302,13.29,0.026,136.5
2023-03-21T04:07:02,42.805,6.029,-0.017,0.001,-0.03,104.0,103.0,103.0,13.4,1505.2,319.3,-0.8,1.8,2471.335,13.29,0.017,273.4
2023-03-21T04:10:02,42.805,6.029,0.006,-0.005,-0.012,104.0,104.0,102.0,13.3,1505.2,332.5,-0.8,1.8,2471.336,13.29,0.007,129.8
2023-03-21T04:13:03,42.805,6.029,0.015,0.003,-0.024,104.0,103.0,103.0,13.4,1505.2,328.4,-0.8,1.8,2471.309,13.29,0.015,78.7
2023-03-21T04:16:03,42.805,6.029,0.003,0.001,0.0,102.0,102.0,104.0,13.4,1505.2,332.5,-0.8,1.8,2471.309,13.29,0.003,71.6
2023-03-21T04:19:03,42.805,6.029,-0.008,-0.017,-0.034,104.0,104.0,102.0,13.4,1505.2,333.9,-0.7,1.8,2471.278,13.29,0.018,205.2
2023-03-21T04:22:02,42.805,6.029,0.019,-0.003,-0.015,104.0,104.0,102.0,13.4,1505.2,327.3,-0.8,1.8,2471.328,13.29,0.019,99.0
2023-03-21T04:25:03,42.805,6.029,0.03,0.002,0.011,104.0,103.0,103.0,13.4,1505.2,323.6,-0.8,1.8,2471.295,13.29,0.03,86.2
2023-03-21T04:28:03,42.805,6.029,-0.007,0.005,-0.019,102.0,103.0,105.0,13.3,1505.2,323.8,-0.8,1.8,2471.319,13.29,0.008,305.5
2023-03-21T04:31:03,42.805,6.029,0.012,-0.004,-0.009,105.0,105.0,102.0,13.4,1505.2,342.8,-0.8,1.8,2471.289,13.29,0.012,108.4
2023-03-21T04:34:03,42.805,6.029,-0.004,-0.006,-0.007,103.0,104.0,102.0,13.4,1505.2,329.2,-0.8,1.8,2471.349,13.29,0.007,213.7
2023-03-21T04:37:02,42.805,6.029,0.006,-0.017,-0.037,104.0,101.0,102.0,13.3,1505.2,331.1,-0.8,1.8,2471.307,13.29,0.018,160.6
2023-03-21T04:40:03,42.805,6.029,-0.017,0.032,0.006,103.0,103.0,102.0,13.3,1505.2,335.4,-0.7,1.8,2471.326,13.29,0.036,332.0
2023-03-21T04:43:03,42.805,6.029,0.0,-0.002,-0.023,105.0,103.0,104.0,13.4,1505.2,331.1,-0.7,1.8,2471.351,13.29,0.002,180.0
2023-03-21T04:46:03,42.805,6.029,-0.012,0.014,-0.038,106.0,103.0,102.0,13.3,1505.2,323.6,-0.8,1.8,2471.341,13.29,0.018,319.4
2023-03-21T04:49:03,42.805,6.029,0.018,-0.007,-0.026,104.0,104.0,101.0,13.4,1505.2,338.2,-0.8,1.8,2471.334,13.29,0.019,111.2
2023-03-21T04:52:02,42.805,6.029,-0.004,-0.002,-0.033,105.0,104.0,103.0,13.4,1505.2,324.7,-0.8,1.8,2471.302,13.29,0.004,243.4
2023-03-21T04:55:03,42.805,6.029,-0.004,-0.001,-0.028,104.0,104.0,103.0,13.3,1505.2,322.4,-0.7,1.8,2471.343,13.29,0.004,256.0
2023-03-21T04:58:03,42.805,6.029,-0.001,-0.004,-0.03,101.0,104.0,102.0,13.3,1505.2,333.4,-0.8,1.8,2471.32,13.29,0.004,194.0
2023-03-21T05:04:02,42.805,6.029,0.0,-0.022,-0.071,103.0,102.0,101.0,13.4,1505.2,342.8,-0.8,1.8,2471.403,13.29,0.022,180.0
2023-03-21T05:07:03,42.805,6.029,-0.007,-0.007,-0.027,101.0,104.0,104.0,13.4,1505.2,317.9,-0.8,1.8,2471.394,13.29,0.009,225.0
2023-03-21T05:10:03,42.805,6.029,0.004,0.0,-0.021,104.0,103.0,101.0,13.3,1505.2,329.3,-0.8,1.8,2471.392,13.29,0.004,90.0
2023-03-21T05:13:03,42.805,6.029,0.02,0.0,-0.03,102.0,104.0,103.0,13.3,1505.2,335.1,-0.8,1.8,2471.383,13.3,0.02,90.0
2023-03-21T05:16:03,42.805,6.029,0.004,0.024,-0.016,103.0,101.0,102.0,13.3,1505.2,322.9,-0.8,1.8,2471.377,13.3,0.024,9.5
2023-03-21T05:19:03,42.805,6.029,-0.007,0.001,-0.016,102.0,102.0,102.0,13.4,1505.2,323.6,-0.8,1.8,2471.384,13.3,0.007,278.1
2023-03-21T05:22:03,42.805,6.029,-0.01,-0.005,-0.006,102.0,105.0,101.0,13.4,1505.2,325.6,-0.7,1.8,2471.402,13.3,0.011,243.4
2023-03-21T05:25:03,42.805,6.029,0.004,-0.02,-0.011,104.0,104.0,104.0,13.3,1505.2,332.0,-0.7,1.8,2471.477,13.3,0.02,168.7
2023-03-21T05:28:03,42.805,6.029,0.002,0.018,-0.011,102.0,103.0,103.0,13.4,1505.2,333.4,-0.8,1.8,2471.378,13.3,0.018,6.3
2023-03-21T05:31:03,42.805,6.029,0.008,-0.01,-0.057,104.0,101.0,102.0,13.4,1505.2,335.6,-0.7,1.8,2471.37,13.3,0.012,141.3
2023-03-21T05:34:03,42.805,6.029,0.006,0.013,-0.002,102.0,106.0,102.0,13.3,1505.2,319.4,-0.7,1.8,2471.401,13.3,0.014,24.8
2023-03-21T05:37:03,42.805,6.029,-0.007,-0.004,-0.039,104.0,103.0,102.0,13.4,1505.2,327.7,-0.8,1.8,2471.44,13.29,0.008,240.3
2023-03-21T05:40:03,42.805,6.029,-0.01,0.016,-0.045,103.0,103.0,102.0,13.4,1505.2,339.5,-0.7,1.9,2471.409,13.29,0.018,328.0
2023-03-21T05:43:03,42.805,6.029,-0.001,-0.006,0.002,104.0,104.0,103.0,13.4,1505.2,333.4,-0.8,1.8,2471.417,13.29,0.006,189.5
2023-03-21T05:46:03,42.805,6.029,0.01,-0.012,-0.037,102.0,102.0,102.0,13.4,1505.2,342.5,-0.8,1.8,2471.398,13.29,0.015,140.2
2023-03-21T05:49:03,42.805,6.029,-0.019,0.003,-0.009,105.0,103.0,102.0,13.4,1505.2,320.0,-0.8,1.8,2471.4,13.29,0.019,279.0
2023-03-21T05:52:03,42.805,6.029,0.002,0.011,-0.048,104.0,103.0,102.0,13.4,1505.2,327.9,-0.8,1.8,2471.387,13.29,0.011,10.3
2023-03-21T05:55:03,42.805,6.029,-0.001,-0.014,-0.041,103.0,103.0,102.0,13.4,1505.2,319.9,-0.7,1.8,2471.435,13.29,0.014,184.1
2023-03-21T05:58:03,42.805,6.029,-0.018,0.005,0.001,104.0,103.0,103.0,13.4,1505.2,330.1,-0.8,1.8,2471.403,13.29,0.018,285.5
2023-03-21T06:04:03,42.805,6.029,0.008,0.011,-0.037,104.0,104.0,102.0,13.4,1505.2,322.4,-0.7,1.8,2471.463,13.29,0.013,36.0
2023-03-21T06:07:03,42.805,6.029,-0.029,0.015,-0.028,103.0,102.0,103.0,13.3,1505.2,327.2,-0.8,1.8,2471.46,13.29,0.032,297.4
2023-03-21T06:10:03,42.805,6.029,0.001,0.01,-0.002,104.0,103.0,101.0,13.3,1505.2,325.5,-0.8,1.8,2471.461,13.29,0.01,5.7
2023-03-21T06:13:03,42.805,6.029,-0.011,0.015,-0.015,102.0,104.0,103.0,13.4,1505.2,321.4,-0.8,1.8,2471.408,13.29,0.018,323.7
2023-03-21T06:16:03,42.805,6.029,-0.01,0.019,-0.027,105.0,104.0,102.0,13.4,1505.2,329.0,-0.8,1.8,2471.435,13.29,0.021,332.2
2023-03-21T06:19:03,42.805,6.029,-0.003,-0.002,-0.012,103.0,102.0,102.0,13.3,1505.2,331.0,-0.7,1.8,2471.427,13.29,0.003,236.3
2023-03-21T06:22:03,42.805,6.029,-0.016,0.024,-0.018,105.0,104.0,103.0,13.4,1505.2,343.4,-0.8,1.8,2471.426,13.29,0.028,326.3
2023-03-21T06:25:03,42.805,6.029,-0.003,0.028,0.007,104.0,103.0,104.0,13.4,1505.2,318.8,-0.8,1.8,2471.405,13.29,0.028,353.9
2023-03-21T06:28:03,42.805,6.029,-0.01,0.017,-0.005,105.0,103.0,104.0,13.3,1505.2,335.2,-0.7,1.8,2471.448,13.29,0.019,329.5
2023-03-21T06:31:03,42.805,6.029,-0.01,0.026,-0.006,104.0,102.0,103.0,13.4,1505.2,329.7,-0.8,1.8,2471.425,13.29,0.027,339.0
2023-03-21T06:34:03,42.805,6.029,-0.013,0.02,-0.017,104.0,103.0,102.0,13.4,1505.2,333.8,-0.8,1.8,2471.413,13.29,0.023,327.0
2023-03-21T06:37:03,42.805,6.029,-0.017,0.007,-0.038,106.0,103.0,102.0,13.4,1505.2,333.9,-0.8,1.8,2471.449,13.29,0.018,292.4
2023-03-21T06:40:03,42.805,6.029,-0.008,-0.008,-0.006,103.0,103.0,102.0,13.4,1505.2,323.6,-0.8,1.9,2471.421,13.29,0.011,225.0
2023-03-21T06:43:03,42.805,6.029,0.005,0.009,-0.031,105.0,104.0,103.0,13.3,1505.2,324.8,-0.7,1.8,2471.423,13.29,0.01,29.1
2023-03-21T06:46:03,42.805,6.029,-0.013,0.025,-0.025,104.0,105.0,104.0,13.4,1505.2,326.8,-0.8,1.8,2471.459,13.29,0.028,332.5
2023-03-21T06:49:03,42.805,6.029,-0.032,0.039,-0.005,103.0,103.0,102.0,13.3,1505.2,321.7,-0.8,1.8,2471.438,13.29,0.05,320.6
2023-03-21T06:52:03,42.805,6.029,-0.011,0.034,-0.012,104.0,103.0,103.0,13.3,1505.2,327.5,-0.8,1.8,2471.436,13.29,0.035,342.1
2023-03-21T06:55:03,42.805,6.029,-0.009,0.016,-0.02,104.0,104.0,103.0,13.3,1505.2,337.8,-0.8,1.8,2471.472,13.29,0.018,330.6
2023-03-21T06:58:03,42.805,6.029,-0.015,0.028,0.0,104.0,104.0,104.0,13.3,1505.2,327.9,-0.7,1.8,2471.446,13.29,0.031,331.8
2023-03-21T07:04:03,42.805,6.029,-0.018,0.0,-0.008,104.0,104.0,102.0,13.4,1505.2,326.0,-0.8,1.8,2471.466,13.29,0.018,270.0
2023-03-21T07:07:03,42.805,6.029,0.0,0.021,-0.015,104.0,103.0,103.0,13.4,1505.2,326.5,-0.8,1.8,2471.454,13.29,0.021,0.0
2023-03-21T07:10:03,42.805,6.029,-0.012,0.011,-0.023,105.0,104.0,104.0,13.4,1505.2,320.6,-0.8,1.8,2471.468,13.29,0.016,312.5
2023-03-21T07:13:03,42.805,6.029,-0.001,-0.001,-0.05,106.0,104.0,102.0,13.4,1505.2,331.3,-0.8,1.8,2471.425,13.29,0.001,225.0
2023-03-21T07:16:03,42.805,6.029,-0.008,0.035,0.002,105.0,104.0,104.0,13.4,1505.2,321.8,-0.7,1.8,2471.414,13.29,0.035,347.1
2023-03-21T07:19:03,42.805,6.029,-0.021,0.021,-0.015,103.0,104.0,104.0,13.4,1505.2,322.9,-0.8,1.8,2471.467,13.29,0.029,315.0
2023-03-21T07:22:03,42.805,6.029,-0.002,0.017,-0.04,104.0,103.0,103.0,13.4,1505.2,331.6,-0.7,1.7,2471.454,13.29,0.017,353.3
2023-03-21T07:25:03,42.805,6.029,-0.001,0.025,-0.015,104.0,103.0,103.0,13.4,1505.2,323.9,-0.7,1.9,2471.438,13.29,0.025,357.7
2023-03-21T07:28:03,42.805,6.029,-0.02,0.028,-0.01,103.0,106.0,102.0,13.4,1505.2,333.9,-0.7,1.8,2471.433,13.29,0.034,324.5
2023-03-21T07:31:03,42.805,6.029,-0.026,0.02,-0.04,103.0,103.0,103.0,13.3,1505.2,317.3,-0.8,1.8,2471.417,13.29,0.032,307.6
2023-03-21T07:34:03,42.805,6.029,0.016,-0.003,-0.044,104.0,103.0,102.0,13.4,1505.2,330.1,-0.8,1.8,2471.407,13.29,0.016,100.6
2023-03-21T07:37:03,42.805,6.029,-0.012,0.031,-0.023,103.0,104.0,102.0,13.4,1505.2,325.0,-0.7,1.9,2471.42,13.29,0.033,338.8
2023-03-21T07:40:03,42.805,6.029,-0.027,0.012,-0.035,105.0,104.0,102.0,13.4,1505.2,324.6,-0.8,1.8,2471.413,13.29,0.029,294.0
2023-03-21T07:43:03,42.805,6.029,-0.02,0.024,-0.028,103.0,104.0,103.0,13.4,1505.2,333.9,-0.8,1.8,2471.44,13.29,0.031,320.2
2023-03-21T07:46:03,42.805,6.029,-0.009,-0.009,-0.037,104.0,104.0,103.0,13.4,1505.2,322.4,-0.8,1.8,2471.407,13.29,0.012,225.0
2023-03-21T07:49:03,42.805,6.029,-0.026,0.015,-0.03,104.0,103.0,103.0,13.4,1505.2,332.0,-0.8,1.9,2471.398,13.29,0.03,300.0
2023-03-21T07:52:03,42.805,6.029,0.0,0.007,-0.018,103.0,104.0,102.0,13.4,1505.2,331.5,-0.7,1.8,2471.401,13.29,0.007,0.0
2023-03-21T07:55:03,42.805,6.029,-0.015,0.001,-0.061,105.0,104.0,103.0,13.4,1505.2,338.0,-0.8,1.8,2471.429,13.29,0.015,273.8
2023-03-21T07:58:03,42.805,6.029,-0.022,-0.002,-0.042,104.0,105.0,103.0,13.3,1505.2,316.7,-0.8,1.8,2471.423,13.29,0.022,264.8
2023-03-21T08:04:03,42.805,6.029,-0.019,0.021,-0.007,104.0,103.0,104.0,13.4,1505.2,337.1,-0.8,1.8,2471.468,13.29,0.028,317.9
2023-03-21T08:07:03,42.805,6.029,-0.018,0.019,0.0,104.0,103.0,103.0,13.4,1505.2,332.5,-0.8,1.8,2471.468,13.29,0.026,316.5
2023-03-21T08:10:03,42.805,6.029,-0.016,0.033,-0.032,104.0,103.0,103.0,13.3,1505.2,340.6,-0.7,1.8,2471.43,13.29,0.036,334.1
2023-03-21T08:13:03,42.805,6.029,-0.012,0.029,-0.02,104.0,104.0,102.0,13.4,1505.2,334.3,-0.8,1.8,2471.434,13.29,0.031,337.5
2023-03-21T08:16:03,42.805,6.029,-0.004,0.01,-0.023,104.0,103.0,103.0,13.4,1505.2,332.9,-0.8,1.8,2471.427,13.29,0.01,338.2
2023-03-21T08:19:03,42.805,6.029,0.004,0.041,-0.03,105.0,102.0,102.0,13.4,1505.2,333.8,-0.8,1.8,2471.418,13.29,0.041,5.6
2023-03-21T08:22:03,42.805,6.029,-0.018,0.007,-0.03,104.0,103.0,103.0,13.3,1505.2,340.9,-0.8,1.8,2471.432,13.29,0.019,291.2
2023-03-21T08:25:03,42.805,6.029,-0.029,0.008,-0.016,104.0,104.0,102.0,13.3,1505.2,327.6,-0.7,1.8,2471.467,13.29,0.03,285.4
2023-03-21T08:28:03,42.805,6.029,-0.015,0.024,-0.013,103.0,103.0,103.0,13.3,1505.2,319.7,-0.8,1.8,2471.425,13.29,0.028,328.0
2023-03-21T08:31:03,42.805,6.029,-0.009,0.031,-0.025,105.0,104.0,103.0,13.3,1505.2,334.3,-0.8,1.8,2471.38,13.29,0.032,343.8
2023-03-21T08:34:03,42.805,6.029,-0.021,0.026,-0.002,106.0,104.0,102.0,13.4,1505.2,317.7,-0.8,1.8,2471.41,13.29,0.033,321.1
2023-03-21T08:37:03,42.805,6.029,-0.025,0.023,-0.028,105.0,102.0,103.0,13.3,1505.2,326.0,-0.8,1.8,2471.397,13.29,0.033,312.6
2023-03-21T08:40:03,42.805,6.029,-0.008,0.008,-0.031,105.0,104.0,102.0,13.4,1505.2,342.4,-0.8,1.8,2471.414,13.29,0.011,315.0
2023-03-21T08:43:03,42.805,6.029,-0.033,0.012,-0.04,104.0,104.0,103.0,13.4,1505.2,324.4,-0.8,1.8,2471.416,13.29,0.035,290.0
2023-03-21T08:46:03,42.805,6.029,-0.021,0.026,-0.013,104.0,104.0,102.0,13.4,1505.2,321.3,-0.8,1.8,2471.42,13.29,0.033,321.1
2023-03-21T08:49:03,42.805,6.029,-0.026,-0.001,0.009,105.0,105.0,103.0,13.3,1505.2,324.0,-0.7,1.8,2471.392,13.29,0.026,267.8
2023-03-21T08:52:03,42.805,6.029,-0.019,0.013,-0.016,104.0,104.0,103.0,13.3,1505.2,329.0,-0.8,1.8,2471.363,13.29,0.023,304.4
2023-03-21T08:55:03,42.805,6.029,-0.04,0.037,-0.012,104.0,105.0,103.0,13.4,1505.2,338.9,-0.8,1.8,2471.431,13.29,0.054,312.8
2023-03-21T08:58:03,42.805,6.029,-0.015,0.01,-0.022,105.0,104.0,103.0,13.3,1505.2,318.5,-0.8,1.8,2471.403,13.29,0.018,303.7
2023-03-21T09:04:03,42.805,6.029,-0.01,0.013,-0.032,106.0,105.0,104.0,13.4,1505.2,334.2,-0.7,1.8,2471.411,13.29,0.016,322.4
2023-03-21T09:07:03,42.805,6.029,-0.025,0.017,-0.044,103.0,105.0,103.0,13.4,1505.2,330.6,-0.8,1.8,2471.42,13.29,0.03,304.2
2023-03-21T09:10:03,42.805,6.029,-0.014,0.025,-0.017,107.0,104.0,103.0,13.4,1505.2,342.5,-0.8,1.8,2471.398,13.29,0.028,330.7
2023-03-21T09:13:03,42.805,6.029,-0.021,0.015,-0.01,105.0,105.0,104.0,13.3,1505.2,328.8,-0.8,1.8,2471.393,13.29,0.025,305.5
2023-03-21T09:16:03,42.805,6.029,-0.02,0.01,-0.034,104.0,105.0,103.0,13.4,1505.2,338.2,-0.8,1.8,2471.381,13.29,0.022,296.6
2023-03-21T09:19:03,42.805,6.029,-0.017,0.013,-0.008,105.0,106.0,103.0,13.4,1505.2,316.1,-0.8,1.8,2471.4,13.29,0.021,307.4
2023-03-21T09:22:03,42.805,6.029,-0.031,0.01,-0.007,105.0,105.0,103.0,13.3,1505.2,322.5,-0.7,1.8,2471.408,13.29,0.032,287.9
2023-03-21T09:25:03,42.805,6.029,-0.013,0.02,0.003,105.0,105.0,104.0,13.4,1505.2,319.5,-0.8,1.8,2471.352,13.29,0.023,327.0
2023-03-21T09:28:03,42.805,6.029,-0.028,0.019,-0.011,104.0,104.0,104.0,13.3,1505.2,331.6,-0.8,1.8,2471.383,13.29,0.033,304.2
2023-03-21T09:31:03,42.805,6.029,-0.011,0.035,0.008,105.0,104.0,103.0,13.3,1505.2,333.8,-0.8,1.8,2471.369,13.29,0.036,342.6
2023-03-21T09:34:03,42.805,6.029,-0.031,0.032,-0.005,105.0,104.0,103.0,13.4,1505.2,339.5,-0.7,1.8,2471.378,13.29,0.044,315.9
2023-03-21T09:37:03,42.805,6.029,-0.019,0.052,0.014,105.0,105.0,103.0,13.4,1505.2,322.3,-0.8,1.8,2471.358,13.29,0.055,339.9
2023-03-21T09:40:03,42.805,6.029,-0.023,0.019,-0.01,104.0,105.0,103.0,13.4,1505.2,331.3,-0.8,1.8,2471.38,13.29,0.029,309.6
2023-03-21T09:43:03,42.805,6.029,-0.011,0.017,-0.018,106.0,104.0,102.0,13.4,1505.2,326.3,-0.8,1.8,2471.347,13.29,0.02,327.1
2023-03-21T09:46:03,42.805,6.029,0.004,0.013,-0.018,104.0,105.0,104.0,13.4,1505.2,342.8,-0.8,1.9,2471.352,13.29,0.013,17.1
2023-03-21T09:49:03,42.805,6.029,-0.058,0.028,-0.019,103.0,105.0,103.0,13.4,1505.2,316.2,-0.8,1.8,2471.385,13.29,0.064,295.8
2023-03-21T09:52:03,42.805,6.029,-0.014,0.027,0.0,105.0,104.0,103.0,13.4,1505.2,331.4,-0.8,1.8,2471.334,13.29,0.03,332.6
2023-03-21T09:55:03,42.805,6.029,-0.01,0.026,-0.009,107.0,104.0,103.0,13.3,1505.2,319.4,-0.8,1.8,2471.341,13.29,0.027,339.0
2023-03-21T09:58:03,42.805,6.029,-0.007,0.021,-0.013,104.0,104.0,103.0,13.3,1505.2,327.8,-0.7,1.8,2471.358,13.29,0.022,341.6